{"data":{"norad_id":60576,"intl_designator":"2024-149DN","name":"LEMUR-2-AHMED-ASRAR","alt_names":[],"object_type":"PAYLOAD","status":"ACTIVE","operator":null,"country":"US","launch_date":"2024-08-16","launch_site_code":"AFWTR","launch_vehicle":null,"mission":null,"orbit_class":"UNKNOWN","rcs_meters":null,"size_class":null,"mass_kg":null,"dimensions":null,"purposes":["earth_obs"],"wikipedia_slug":null,"has_3d_model":false,"image_url":null,"decayed_at":null,"tle_current":{"epoch":"2026-09-19T00:49:35.685984Z","epoch_age_seconds":144962,"freshness":"FRESH","line1":"1 60576U 24149DN  26262.03444081  .00007735  00000+0  42358-3 0  9992","line2":"2 60576  97.6962 348.0078 0002787  62.6702 297.4813 15.14508857114769","mean_motion":15.14508857,"eccentricity":0.0002787,"inclination_deg":97.6962,"raan_deg":348.0078,"arg_perigee_deg":62.6702,"mean_anomaly_deg":297.4813,"bstar":0.00042358,"rev_number":11476,"period_min":95.080328737886,"perigee_km":520.54683191845,"apogee_km":524.39323027758,"semimajor_km":6900.607031098,"source":"CELESTRAK","updated_at":"2026-09-20T09:00:34.871655Z"}}}